Regional Weather Roundup
Issued by NWS

Home | Current Version | Previous Version | Graphics & Text | Print | Product List | Glossary On
Versions: 1 2 3 4 5 6 7 8 9 10 11 12 13 14 15 16 17 18 19 20 21 22 23 24 25 26 27 28 29 30 31 32 33 34 35 36 37 38 39 40 41 42 43 44 45 46 47 48 49 50
000
ASUS45 KCYS 292310
RWRWY

WYOMING REGIONAL WEATHER ROUNDUP
NATIONAL WEATHER SERVICE CHEYENNE WY
500 PM MDT TUE JUL 29 2014

NOTE:  "FAIR" INDICATES FEW OR NO CLOUDS BELOW 12,000 FEET
WITH NO SIGNIFICANT WEATHER AND/OR OBSTRUCTIONS TO VISIBILITY.

WYZ001-300000-
YELLOWSTONE NATIONAL PARK

CITY           SKY/WX    TMP DP  RH WIND       PRES   REMARKS
LK YELLOWSTONE   N/A     55  48  77 W8        30.46R
W YELLOWSTONE  NOT AVBL

$$
WYZ002>013-054>058-071-098>099-300000-
NORTHERN WYOMING

CITY           SKY/WX    TMP DP  RH WIND       PRES   REMARKS
JACKSON        CLOUDY    61  57  88 N9        30.38R
CODY           NOT AVBL
GREYBULL       CLOUDY    73  54  51 SE14      30.24F
WORLAND        CLOUDY    68  59  73 SW7       30.26F
SHERIDAN       PTSUNNY   80  43  26 SE13      30.23S
BUFFALO        CLOUDY    71  48  43 S7        30.31S
GILLETTE       CLOUDY    71  56  58 W9        30.26F
HULETT         FAIR      70  54  56 MISG      30.25
NEWCASTLE      FAIR      68  55  64 CALM      30.26

$$
WYZ014>020-022>026-101>103-300000-
CENTRAL WYOMING

CITY           SKY/WX    TMP DP  RH WIND       PRES   REMARKS
BIG PINEY      LGT RAIN  57  55  93 N6        30.39S FOG
PINEDALE       DRIZZLE   55  54  94 NW10      30.39S
DUBOIS         DRIZZLE   55  50  82 SE5       30.42F
LANDER         LGT RAIN  60  57  89 W7        30.34F
RIVERTON       LGT RAIN  61  57  87 W6        30.34F
CASPER         CLOUDY    64  50  60 NE17      30.31S
DOUGLAS        CLOUDY    67  53  61 NE12      30.29R

$$
WYZ021-027>030-104>119-300000-
SOUTHERN WYOMING

CITY           SKY/WX    TMP DP  RH WIND       PRES   REMARKS
EVANSTON       CLOUDY    64  56  75 MISG      30.32F
KEMMERER       DRIZZLE   57  54  88 NE9       30.36F
FORT BRIDGER   MOCLDY    63  56  77 CALM      30.37F
ROCK SPRINGS   LGT RAIN  61  55  81 NE22      30.34S
DIXON          MOCLDY    69  56  62 NW5       30.32S
RAWLINS        CLOUDY    57  55  93 E12       30.35S
SARATOGA       RAIN      55  55 100 SE3       30.35F
LARAMIE        CLOUDY    59  53  80 SE3       30.35R
CHEYENNE       LGT RAIN  63  60  90 NW7       30.28R
TORRINGTON     CLOUDY    76  56  49 E18G29    30.16S
PINE BLUFFS    CLOUDY    72  55  56 E5        30.20F

$$


USA.gov is the U.S. government's official web portal to all federal, state and local government web resources and services.